Location: Stara Lesna
(49.1528°N, 20.2911°E)
Time: 11:25:28
(UTC+02:00)

Cosmos 1655 Rocket - Pass Details

Date: 21 September 2019
Orbit: 971 x 1005 km, 83.0° (Epoch: 18 October)

Event Time Altitude Azimuth Distance (km) Brightness Sun altitude
Rises 04:30:05 0° 176° (S) 3,656 6.8 -18.7°
Reaches altitude 10° 04:32:35 10° 173° (S) 2,715 6.2 -18.3°
Maximum altitude 04:38:43 64° 94° (E) 1,085 4.5 -17.4°
Drops below altitude 10° 04:44:56 10° 15° (NNE) 2,753 6.8 -16.5°
Sets 04:47:29 0° 12° (NNE) 3,711 7.5 -16.1°
